Weather History for Bigfork, MN

Change the Weather History Date:

Monday, October 1, 2012

  Actual Average (KGPZ) Record (KGPZ)
Temperature  
Mean Temperature 50 °F -  
Max Temperature 66 °F 62 °F 84 °F (1922)
Min Temperature 33 °F 39 °F 14 °F (1918)
Degree Days  
Heating Degree Days 16    
Moisture  
Dew Point 39 °F    
Average Humidity 58    
Maximum Humidity 87    
Minimum Humidity 26    
Precipitation  
Precipitation 0.00 in - - ()
Sea Level Pressure  
Sea Level Pressure 29.94 in    
Wind  
Wind Speed 4 mph (NW)    
Max Wind Speed 15 mph    
Max Gust Speed 23 mph    
Visibility 10 miles    
Events      
Averages and records for this station are not official NWS values.
T = Trace of Precipitation, MM = Missing Value Source: NWS Daily Summary

Daily Weather History Graph

Daily Weather History Graph

Search for Another Location

Airport:

Trip Planner

Search our weather history database for the weather conditions in past years. The results will help you decide how hot, cold, wet, or windy it might be!

Date:

Astronomy

Oct. 01, 2012 Rise Set
Actual Time 7:14 AM CDT 6:52 PM CDT
Civil Twilight 6:43 AM CDT 7:23 PM CDT
Nautical Twilight 6:07 AM CDT 7:59 PM CDT
Astronomical Twilight 5:31 AM CDT 8:35 PM CDT
Moon 7:18 PM CDT (10/1) 8:55 AM CDT (10/1)
Length of Visible Light 12h 39m
Length of Day
11h 38m
Full, 98% of the Moon is Illuminated
Oct 1
Full
Oct 8
Last Quarter
Oct 15
New
Oct 21
First Quarter
Oct 29
Full

Hourly Weather History & Observations

Time (CDT) Temp. Dew Point Humidity Pressure Visibility Wind Dir Wind Speed Gust Speed Precip Events Conditions
12:13 AM 55.4 °F 42.8 °F 63% 29.85 in 10.0 mi Calm Calm - N/A   Clear
12:33 AM 53.6 °F 42.8 °F 67% 29.85 in 10.0 mi Calm Calm - N/A   Clear
12:53 AM 57.2 °F 46.4 °F 67% 29.85 in 10.0 mi Calm Calm - N/A   Clear
1:13 AM 57.2 °F 46.4 °F 67% 29.85 in 10.0 mi Calm Calm - N/A   Clear
1:33 AM 57.2 °F 44.6 °F 63% 29.86 in 10.0 mi NW 4.6 mph - N/A   Clear
1:53 AM 57.2 °F 42.8 °F 59% 29.86 in 10.0 mi WNW 3.5 mph - N/A   Clear
2:33 AM 55.4 °F 42.8 °F 63% 29.86 in 10.0 mi NW 8.1 mph - N/A   Clear
2:53 AM 55.4 °F 42.8 °F 63% 29.86 in 10.0 mi NW 6.9 mph - N/A   Clear
3:13 AM 55.4 °F 42.8 °F 63% 29.87 in 10.0 mi WNW 4.6 mph - N/A   Clear
3:33 AM 55.4 °F 42.8 °F 63% 29.87 in 10.0 mi NW 6.9 mph - N/A   Clear
3:53 AM 55.4 °F 42.8 °F 63% 29.87 in 10.0 mi NW 4.6 mph - N/A   Clear
4:13 AM 55.4 °F 42.8 °F 63% 29.89 in 10.0 mi NW 4.6 mph - N/A   Clear
4:33 AM 55.4 °F 42.8 °F 63% 29.88 in 10.0 mi NNW 4.6 mph - N/A   Clear
4:53 AM 55.4 °F 44.6 °F 67% 29.88 in 10.0 mi NW 6.9 mph - N/A   Clear
5:13 AM 53.6 °F 44.6 °F 72% 29.89 in 10.0 mi NW 4.6 mph - N/A   Clear
5:33 AM 53.6 °F 44.6 °F 72% 29.89 in 10.0 mi WNW 4.6 mph - N/A   Clear
5:53 AM 53.6 °F 44.6 °F 72% 29.90 in 10.0 mi NW 4.6 mph - N/A   Clear
6:13 AM 53.6 °F 44.6 °F 72% 29.90 in 10.0 mi NW 4.6 mph - N/A   Clear
6:33 AM 53.6 °F 44.6 °F 72% 29.90 in 10.0 mi NW 4.6 mph - N/A   Scattered Clouds
6:53 AM 53.6 °F 44.6 °F 72% 29.91 in 10.0 mi NW 3.5 mph - N/A   Scattered Clouds
7:13 AM 51.8 °F 44.6 °F 76% 29.92 in 10.0 mi NW 3.5 mph - N/A   Clear
7:33 AM 51.8 °F 44.6 °F 76% 29.93 in 10.0 mi WNW 3.5 mph - N/A   Clear
7:53 AM 51.8 °F 44.6 °F 76% 29.93 in 10.0 mi WNW 4.6 mph - N/A   Clear
8:13 AM 51.8 °F 44.6 °F 76% 29.94 in 10.0 mi NW 3.5 mph - N/A   Clear
8:33 AM 51.8 °F 44.6 °F 76% 29.94 in 10.0 mi NW 4.6 mph - N/A   Clear
8:53 AM 53.6 °F 44.6 °F 72% 29.95 in 10.0 mi NW 5.8 mph - N/A   Clear
9:13 AM 53.6 °F 44.6 °F 72% 29.95 in 10.0 mi NNW 9.2 mph - N/A   Clear
9:33 AM 55.4 °F 44.6 °F 67% 29.96 in 10.0 mi NW 6.9 mph - N/A   Clear
9:53 AM 57.2 °F 46.4 °F 67% 29.96 in 10.0 mi NW 8.1 mph - N/A   Clear
10:13 AM 57.2 °F 44.6 °F 63% 29.96 in 10.0 mi NNW 9.2 mph 17.3 mph N/A   Clear
10:33 AM 60.8 °F 44.6 °F 55% 29.97 in 10.0 mi NNW 10.4 mph - N/A   Clear
10:53 AM 60.8 °F 44.6 °F 55% 29.97 in 10.0 mi NW 11.5 mph 17.3 mph N/A   Clear
11:13 AM 60.8 °F 46.4 °F 59% 29.96 in 10.0 mi NW 10.4 mph 18.4 mph N/A   Clear
11:33 AM 62.6 °F 44.6 °F 52% 29.97 in 10.0 mi NNW 13.8 mph 21.9 mph N/A   Clear
11:53 AM 62.6 °F 42.8 °F 48% 29.97 in 10.0 mi NNW 10.4 mph 23.0 mph N/A   Clear
12:13 PM 62.6 °F 42.8 °F 48% 29.97 in 10.0 mi NNW 8.1 mph 21.9 mph N/A   Clear
12:33 PM 64.4 °F 39.2 °F 40% 29.97 in 10.0 mi NNW 15.0 mph 19.6 mph N/A   Scattered Clouds
12:53 PM 62.6 °F 42.8 °F 48% 29.97 in 10.0 mi NNW 6.9 mph 16.1 mph N/A   Scattered Clouds
1:13 PM 66.2 °F 39.2 °F 37% 29.97 in 10.0 mi NNW 11.5 mph 17.3 mph N/A   Scattered Clouds
1:33 PM 64.4 °F 37.4 °F 37% 29.96 in 10.0 mi NNW 10.4 mph 19.6 mph N/A   Scattered Clouds
1:53 PM 64.4 °F 37.4 °F 37% 29.96 in 10.0 mi NNW 12.7 mph 17.3 mph N/A   Clear
2:13 PM 66.2 °F 39.2 °F 37% 29.95 in 10.0 mi NNW 9.2 mph 18.4 mph N/A   Clear
2:33 PM 66.2 °F 37.4 °F 35% 29.95 in 10.0 mi North 10.4 mph 18.4 mph N/A   Clear
2:53 PM 66.2 °F 37.4 °F 35% 29.95 in 10.0 mi NNW 8.1 mph - N/A   Clear
3:13 PM 66.2 °F 35.6 °F 32% 29.95 in 10.0 mi NW 10.4 mph 16.1 mph N/A   Clear
3:33 PM 66.2 °F 35.6 °F 32% 29.95 in 10.0 mi WNW 12.7 mph 18.4 mph N/A   Clear
3:53 PM 66.2 °F 33.8 °F 30% 29.95 in 10.0 mi NW 4.6 mph 18.4 mph N/A   Clear
4:13 PM 66.2 °F 33.8 °F 30% 29.95 in 10.0 mi NW 8.1 mph - N/A   Clear
4:33 PM 64.4 °F 30.2 °F 28% 29.96 in 10.0 mi NNW 8.1 mph 16.1 mph N/A   Clear
5:13 PM 64.4 °F 30.2 °F 28% 29.97 in 10.0 mi WNW 9.2 mph 17.3 mph N/A   Clear
5:33 PM 64.4 °F 28.4 °F 26% 29.97 in 10.0 mi NNW 6.9 mph 18.4 mph N/A   Clear
5:53 PM 62.6 °F 28.4 °F 27% 29.97 in 10.0 mi NNW 8.1 mph 16.1 mph N/A   Clear
6:13 PM 62.6 °F 30.2 °F 30% 29.98 in 10.0 mi NW 4.6 mph - N/A   Clear
6:33 PM 60.8 °F 30.2 °F 31% 29.98 in 10.0 mi NNW 4.6 mph - N/A   Clear
6:53 PM 59.0 °F 32.0 °F 36% 29.98 in 10.0 mi NNW 3.5 mph - N/A   Clear
7:13 PM 57.2 °F 32.0 °F 38% 29.98 in 10.0 mi Calm Calm - N/A   Clear
7:33 PM 55.4 °F 33.8 °F 44% 29.98 in 10.0 mi NNW 3.5 mph - N/A   Clear
7:53 PM 53.6 °F 33.8 °F 47% 29.99 in 10.0 mi Calm Calm - N/A   Clear
8:13 PM 48.2 °F 33.8 °F 58% 29.99 in 10.0 mi Calm Calm - N/A   Clear
8:33 PM 46.4 °F 33.8 °F 62% 29.98 in 10.0 mi Calm Calm - N/A   Clear
8:53 PM 42.8 °F 33.8 °F 70% 29.99 in 10.0 mi Calm Calm - N/A   Clear
9:13 PM 41.0 °F 33.8 °F 76% 29.99 in 10.0 mi Calm Calm - N/A   Clear
9:33 PM 41.0 °F 32.0 °F 70% 29.99 in 10.0 mi Calm Calm - N/A   Clear
9:53 PM 37.4 °F 30.2 °F 75% 29.99 in 10.0 mi Calm Calm - N/A   Clear
10:13 PM 37.4 °F 30.2 °F 75% 30.00 in 10.0 mi Calm Calm - N/A   Clear
10:33 PM 35.6 °F 30.2 °F 81% 30.00 in 10.0 mi Calm Calm - N/A   Clear
10:53 PM 35.6 °F 30.2 °F 81% 29.99 in 10.0 mi Calm Calm - N/A   Clear
11:13 PM 33.8 °F 30.2 °F 87% 30.00 in 10.0 mi Calm Calm - N/A   Clear
11:33 PM 33.8 °F 30.2 °F 87% 30.00 in 10.0 mi Calm Calm - N/A   Clear
11:53 PM 33.8 °F 28.4 °F 81% 29.99 in 10.0 mi Calm Calm - N/A   Clear